Location: Unspecified
(0.0000°N, 0.0000°E)
Time: 13:44:58
(UTC+00:00)

Envisat - Pass Details

Date: 02 December 2021
Orbit: 764 x 766 km, 98.2° (Epoch: 07 December)

Event Time Altitude Azimuth Distance (km) Brightness Sun altitude
Rises 03:40:15 0° 41° (NE) 3,215 6.4 -29.7°
Reaches altitude 10° 03:43:14 10° 60° (ENE) 2,293 5.8 -29.0°
Maximum altitude 03:46:38 18° 103° (ESE) 1,793 5.6 -28.2°
Drops below altitude 10° 03:50:02 10° 145° (SE) 2,300 6.2 -27.5°
Sets 03:53:00 0° 163° (SSE) 3,229 6.8 -26.8°
